138  
ASUS41 KBTV 231811  
RWRBTV  
VERMONT REGIONAL WEATHER ROUNDUP  
NATIONAL WEATHER SERVICE BURLINGTON VT  
100 PM EST SAT JAN 23 2021  
 
NOTE: "FAIR" INDICATES FEW OR NO CLOUDS BELOW 12,000 FEET WITH NO  
SIGNIFICANT WEATHER AND/OR S TO VISIBILITY
.  
 
* THESE REPORTS ARE NOT UNDER NWS QUALITY CONTROL AND/OR DO NOT  
REPORT WEATHER SUCH AS PRECIPITATION AND FOG.
 
 
VTZ001>019-231900-  
_____VERMONT_____  
 
 
CITY SKY/WX TMP DP RH WIND PRES REMARKS
 
BURLINGTON PTSUNNY 15 1 53 NW16 30.02S WCI -1  
6HR MIN TEMP: 14; 6HR MAX TEMP: 15; 6HR PCP: TRACE;  
 
MONTPELIER CLOUDY 10 2 69 NW15G24 29.95S WCI -7  
6HR MIN TEMP: 9; 6HR MAX TEMP: 12; 6HR PCP: TRACE;  
 
MORRISVILLE CLOUDY 12 2 64 N9 29.97S WCI 0  
6HR MIN TEMP: 10; 6HR MAX TEMP: 12; 6HR PCP: TRACE;  
 
ST. JOHNSBURY* N/A 13 1 59 MISG 29.92S  
6HR MIN TEMP: 12; 6HR MAX TEMP: 15;  
 
LYNDONVILLE* FLURRIES 10 2 68 W8G18 29.90S WCI -2  
6HR MIN TEMP: 9; 6HR MAX TEMP: 11;  
 
MIDDLEBURY* CLOUDY 15 1 55 N8 29.99S WCI 4  
6HR MIN TEMP: 13; 6HR MAX TEMP: 15;  
 
RUTLAND* FLURRIES 19 10 68 N13 29.95F WCI 6  
6HR MIN TEMP: 14; 6HR MAX TEMP: 20; 6HR PCP: TRACE;  
 
SPRINGFIELD CLOUDY 17 4 56 N9 29.93F WCI 6  
6HR MIN TEMP: 17; 6HR MAX TEMP: 19; 6HR PCP: TRACE;  
 
HIGHGATE* CLOUDY 13 -1 54 W6 30.04F WCI 4  
6HR MIN TEMP: 10; 6HR MAX TEMP: 14;  
 
NEWPORT* CLOUDY 10 1 67 NW9 29.93S HAZE WCI -3  
6HR MIN TEMP: 8; 6HR MAX TEMP: 11;  
 
BENNINGTON CLOUDY 19 2 47 W15G23 29.95F WCI 5  
6HR MIN TEMP: 18; 6HR MAX TEMP: 20;  
 
LAKE EDEN* N/A 10 N/A N/A W2 N/A  
 
_____LAKE CHAMPLAIN_____  
 
 
CITY SKY/WX TMP DP RH WIND PRES REMARKS
 
 

 
 
NYZ007-026>031-035-052-083-087-231900-  
_____NORTHERN NEW YORK_____  
 
 
CITY SKY/WX TMP DP RH WIND PRES REMARKS
 
PLATTSBURGH SUNNY 14 0 53 W13G21 30.03F WCI 0  
6HR MIN TEMP: 11; 6HR MAX TEMP: 15; 6HR PCP: TRACE;  
 
SARANAC LAKE CLOUDY 4 -2 76 MISG 29.94S HAZE  
6HR MIN TEMP: 3; 6HR MAX TEMP: 6;  
 
MASSENA SUNNY 7 -4 60 W16 30.16S WCI -11  
6HR MIN TEMP: 4; 6HR MAX TEMP: 7;  
 
OGDENSBURG* FAIR 10 -2 56 W12 30.15S WCI -4  
POTSDAM* MOSUNNY 7 -4 61 W9G17 30.13S WCI -7  
WATERTOWN SUNNY 12 1 61 NW7 30.19F WCI 1  
6HR MIN TEMP: -2; 6HR MAX TEMP: 12;  
 
ALBANY MOSUNNY 19 5 54 W24G37 30.06R WCI 2  
6HR MIN TEMP: 16; 6HR MAX TEMP: 19; 6HR PCP: TRACE;  
 
GLENS FALLS SUNNY 20 2 45 N14 30.01F WCI 7  
6HR MIN TEMP: 16; 6HR MAX TEMP: 21;  
 

 
NHZ002-005-011-231900-  
_____NEW HAMPSHIRE_____  
 
 
CITY SKY/WX TMP DP RH WIND PRES REMARKS
 
LEBANON PTSUNNY 18 3 52 NW10G22 29.93S WCI 6  
6HR MIN TEMP: 15; 6HR MAX TEMP: 20;  
 
KEENE PTSUNNY 24 8 50 N12G20 29.91S WCI 13  
6HR MIN TEMP: 21; 6HR MAX TEMP: 25; 6HR PCP: TRACE;  
 
MT WASHINGTON DRFTSNOW -9 -22 54 NW45 N/A VSB 1/16WCI -43  
6HR MIN TEMP: -12; 6HR MAX TEMP: -7; 6HR PCP: 0.01;  
 
PLYMOUTH CLOUDY 17 6 60 NW15G26 29.89R WCI 2  
6HR MIN TEMP: 16; 6HR MAX TEMP: 18;  
 
WHITEFIELD CLOUDY 12 3 67 W12G20 29.87S WCI -2  
6HR MIN TEMP: 11; 6HR MAX TEMP: 13; 6HR PCP: TRACE;  
 

 
 
_____REGIONAL QUEBEC LOCATIONS_____  
 
 
CITY SKY/WX TMP DP RH WIND PRES REMARKS
 
MONTREAL FLURRIES 9 1 72 W22 30.05S WCI -11  
QUEBEC CITY PTSUNNY 18 7 62 SW16 29.83F WCI 3  
SHERBROOKE LGT SNOW 9 3 78 W17G24 29.88S WCI -10  
 
_____REGIONAL ONTARIO LOCATIONS_____  
 
 
CITY SKY/WX TMP DP RH WIND PRES REMARKS
 
OTTAWA MOSUNNY 7 -4 61 W17 30.14S WCI -12  
 
______KEY______  
VSB - VISIBILITY IN MILES  
WCI - WIND CHILL INDEX  
HX - HEAT INDEX  

 
NNNN  
 
 
CLICK HERE TO GO TO PREVIOUS BULLETINS.

The Nexlab VT Page
The Nexlab NY Page Main Text Page